| time (UTC) | temp F | wind direction | speed MPH | gust MPH | rain 1hr in | rain 24hr in | rain mn in | humidity % | barometer mb |
| 20260510013024 | 89 | 151 | 14.0 | 18.0 | 0.00 | 0.00 | 0.00 | 10 | 994.9 |
| 20260510011522 | 90 | 144 | 17.0 | 20.0 | 0.00 | 0.00 | 0.00 | 10 | 994.7 |
| 20260510010019 | 91 | 132 | 12.0 | 19.0 | 0.00 | 0.00 | 0.00 | 9 | 994.7 |
| 20260510004526 | 93 | 203 | 7.0 | 16.0 | 0.00 | 0.00 | 0.00 | 8 | 994.8 |
| 20260510003026 | 93 | 187 | 8.0 | 16.0 | 0.00 | 0.00 | 0.00 | 8 | 994.8 |
| 20260510001522 | 93 | 193 | 5.0 | 20.0 | 0.00 | 0.00 | 0.00 | 8 | 994.8 |
| 20260510000028 | 93 | 177 | 11.0 | 16.0 | 0.00 | 0.00 | 0.00 | 8 | 994.9 |
| 20260509234519 | 93 | 173 | 10.0 | 21.0 | 0.00 | 0.00 | 0.00 | 8 | 994.9 |
| 20260509233016 | 93 | 198 | 10.0 | 18.0 | 0.00 | 0.00 | 0.00 | 8 | 995.1 |
| 20260509231515 | 93 | 243 | 9.0 | 16.0 | 0.00 | 0.00 | 0.00 | 8 | 995.2 |
| 20260509230015 | 93 | 221 | 8.0 | 14.0 | 0.00 | 0.00 | 0.00 | 8 | 995.3 |
| 20260509224512 | 93 | 210 | 7.0 | 15.0 | 0.00 | 0.00 | 0.00 | 8 | 995.5 |
| 20260509223016 | 93 | 213 | 11.0 | 23.0 | 0.00 | 0.00 | 0.00 | 8 | 995.6 |
| 20260509221515 | 92 | 301 | 3.0 | 15.0 | 0.00 | 0.00 | 0.00 | 8 | 995.8 |
| 20260509220017 | 92 | 219 | 9.0 | 16.0 | 0.00 | 0.00 | 0.00 | 8 | 995.9 |
| 20260509214508 | 92 | 208 | 14.0 | 26.0 | 0.00 | 0.00 | 0.00 | 9 | 996.1 |
| 20260509213051 | 92 | 170 | 6.0 | 16.0 | 0.00 | 0.00 | 0.00 | 9 | 996.3 |
| 20260509211549 | 92 | 103 | 6.0 | 18.0 | 0.00 | 0.00 | 0.00 | 9 | 996.6 |
| 20260509210049 | 93 | 171 | 9.0 | 11.0 | 0.00 | 0.00 | 0.00 | 9 | 996.9 |
| 20260509204546 | 92 | 232 | 5.0 | 10.0 | 0.00 | 0.00 | 0.00 | 9 | 997.3 |
| 20260509203100 | 91 | 221 | 7.0 | 18.0 | 0.00 | 0.00 | 0.00 | 10 | 997.6 |
| 20260509201548 | 91 | 211 | 3.0 | 12.0 | 0.00 | 0.00 | 0.00 | 11 | 997.9 |
| 20260509200047 | 90 | 226 | 10.0 | 21.0 | 0.00 | 0.00 | 0.00 | 12 | 998.1 |
| 20260509194548 | 91 | 205 | 2.0 | 12.0 | 0.00 | 0.00 | 0.00 | 11 | 998.1 |
| 20260509193040 | 90 | 230 | 12.0 | 20.0 | 0.00 | 0.00 | 0.00 | 11 | 998.4 |
| 20260509191556 | 90 | 225 | 10.0 | 18.0 | 0.00 | 0.00 | 0.00 | 12 | 998.6 |
| 20260509190035 | 89 | 142 | 2.0 | 14.0 | 0.00 | 0.00 | 0.00 | 13 | 998.7 |
| 20260509184544 | 89 | 265 | 8.0 | 22.0 | 0.00 | 0.00 | 0.00 | 12 | 999.1 |
| 20260509183052 | 89 | 228 | 15.0 | 24.0 | 0.00 | 0.00 | 0.00 | 14 | 999.3 |
| 20260509181542 | 88 | 207 | 15.0 | 21.0 | 0.00 | 0.00 | 0.00 | 14 | 999.6 |
| 20260509180041 | 87 | 178 | 12.0 | 18.0 | 0.00 | 0.00 | 0.00 | 16 | 999.7 |
| 20260509174558 | 86 | 219 | 16.0 | 21.0 | 0.00 | 0.00 | 0.00 | 17 | 999.9 |
| 20260509173019 | 86 | 141 | 11.0 | 26.0 | 0.00 | 0.00 | 0.00 | 18 | 1000.1 |
| 20260509171517 | 85 | 182 | 16.0 | 21.0 | 0.00 | 0.00 | 0.00 | 19 | 1000.3 |
| 20260509170022 | 84 | 175 | 11.0 | 17.0 | 0.00 | 0.00 | 0.00 | 20 | 1000.5 |
| 20260509164514 | 83 | 169 | 12.0 | 19.0 | 0.00 | 0.00 | 0.00 | 20 | 1000.6 |
| 20260509163032 | 82 | 168 | 14.0 | 19.0 | 0.00 | 0.00 | 0.00 | 21 | 1000.6 |
| 20260509161518 | 81 | 185 | 16.0 | 20.0 | 0.00 | 0.00 | 0.00 | 22 | 1000.6 |
| 20260509160015 | 80 | 169 | 13.0 | 18.0 | 0.00 | 0.00 | 0.00 | 24 | 1000.7 |
| 20260509154511 | 78 | 185 | 12.0 | 18.0 | 0.00 | 0.00 | 0.00 | 26 | 1000.9 |
| 20260509153022 | 76 | 186 | 12.0 | 15.0 | 0.00 | 0.00 | 0.00 | 27 | 1001.0 |
| 20260509151514 | 75 | 160 | 14.0 | 18.0 | 0.00 | 0.00 | 0.00 | 28 | 1001.2 |
| 20260509150012 | 74 | 166 | 15.0 | 19.0 | 0.00 | 0.00 | 0.00 | 29 | 1001.4 |
| 20260509144507 | 72 | 192 | 10.0 | 12.0 | 0.00 | 0.00 | 0.00 | 31 | 1001.4 |
| 20260509143011 | 70 | 195 | 11.0 | 14.0 | 0.00 | 0.00 | 0.00 | 33 | 1001.6 |
| 20260509141511 | 68 | 198 | 10.0 | 13.0 | 0.00 | 0.00 | 0.00 | 36 | 1001.5 |
| 20260509140012 | 67 | 213 | 12.0 | 14.0 | 0.00 | 0.00 | 0.00 | 36 | 1001.4 |
| 20260509134508 | 67 | 207 | 11.0 | 17.0 | 0.00 | 0.00 | 0.00 | 36 | 1001.3 |
| 20260509133044 | 66 | 195 | 12.0 | 16.0 | 0.00 | 0.00 | 0.00 | 36 | 1001.2 |
| 20260509131543 | 65 | 191 | 9.0 | 11.0 | 0.00 | 0.00 | 0.00 | 39 | 1001.1 |
| 20260509130046 | 64 | 171 | 10.0 | 12.0 | 0.00 | 0.00 | 0.00 | 41 | 1001.0 |
| 20260509124548 | 63 | 159 | 11.0 | 14.0 | 0.00 | 0.00 | 0.00 | 42 | 1001.0 |
| 20260509123006 | 62 | 173 | 9.0 | 13.0 | 0.00 | 0.00 | 0.00 | 43 | 1000.6 |
| 20260509121509 | 62 | 196 | 10.0 | 14.0 | 0.00 | 0.00 | 0.00 | 45 | 1000.3 |
| 20260509120002 | 62 | 165 | 10.0 | 11.0 | 0.00 | 0.00 | 0.00 | 45 | 1000.3 |
| 20260509114603 | 64 | 156 | 7.0 | 13.0 | 0.00 | 0.00 | 0.00 | 43 | 1000.3 |
| 20260509113058 | 65 | 146 | 9.0 | 13.0 | 0.00 | 0.00 | 0.00 | 42 | 1000.2 |
| 20260509111553 | 65 | 140 | 10.0 | 12.0 | 0.00 | 0.00 | 0.00 | 42 | 1000.1 |
| 20260509104518 | 64 | 116 | 6.0 | 9.0 | 0.00 | 0.00 | 0.00 | 44 | 1000.0 |
| 20260509103014 | 65 | 139 | 7.0 | 11.0 | 0.00 | 0.00 | 0.00 | 43 | 999.8 |
| 20260509101521 | 66 | 136 | 9.0 | 11.0 | 0.00 | 0.00 | 0.00 | 40 | 999.8 |
| 20260509094556 | 68 | 149 | 8.0 | 15.0 | 0.00 | 0.00 | 0.00 | 37 | 999.8 |
| 20260509093043 | 67 | 249 | 12.0 | 15.0 | 0.00 | 0.00 | 0.00 | 39 | 999.2 |
| 20260509091540 | 68 | 226 | 9.0 | 14.0 | 0.00 | 0.00 | 0.00 | 38 | 998.9 |
| 20260509084526 | 70 | 259 | 13.0 | 16.0 | 0.00 | 0.00 | 0.00 | 35 | 999.0 |
| 20260509083034 | 69 | 261 | 11.0 | 14.0 | 0.00 | 0.00 | 0.00 | 35 | 999.0 |
| 20260509081523 | 69 | 258 | 13.0 | 16.0 | 0.00 | 0.00 | 0.00 | 35 | 999.1 |
| 20260509074524 | 69 | 268 | 13.0 | 16.0 | 0.00 | 0.00 | 0.00 | 36 | 999.1 |
| 20260509073029 | 68 | 257 | 13.0 | 15.0 | 0.00 | 0.00 | 0.00 | 37 | 999.1 |
| 20260509071526 | 69 | 254 | 13.0 | 17.0 | 0.00 | 0.00 | 0.00 | 37 | 999.2 |
| 20260509064649 | 69 | 248 | 14.0 | 16.0 | 0.00 | 0.00 | 0.00 | 37 | 999.5 |
| 20260509063048 | 70 | 244 | 14.0 | 18.0 | 0.00 | 0.00 | 0.00 | 37 | 999.6 |
| 20260509061548 | 70 | 254 | 14.0 | 19.0 | 0.00 | 0.00 | 0.00 | 36 | 999.7 |
| 20260509054512 | 69 | 248 | 13.0 | 16.0 | 0.00 | 0.00 | 0.00 | 37 | 999.9 |
| 20260509053013 | 69 | 259 | 13.0 | 16.0 | 0.00 | 0.00 | 0.00 | 38 | 1000.1 |
| 20260509051510 | 70 | 248 | 12.0 | 15.0 | 0.00 | 0.00 | 0.00 | 38 | 1000.1 |
| 20260509044518 | 71 | 248 | 12.0 | 16.0 | 0.00 | 0.00 | 0.00 | 37 | 1000.4 |
| 20260509043015 | 71 | 236 | 12.0 | 15.0 | 0.00 | 0.00 | 0.00 | 37 | 1000.4 |
| 20260509041513 | 72 | 240 | 13.0 | 17.0 | 0.00 | 0.00 | 0.00 | 36 | 1000.4 |
| 20260509034530 | 73 | 244 | 14.0 | 19.0 | 0.00 | 0.00 | 0.00 | 34 | 1000.1 |
| 20260509033026 | 74 | 227 | 15.0 | 19.0 | 0.00 | 0.00 | 0.00 | 33 | 1000.0 |
| 20260509031537 | 75 | 228 | 15.0 | 22.0 | 0.00 | 0.00 | 0.00 | 33 | 999.8 |
| 20260509024519 | 76 | 228 | 17.0 | 21.0 | 0.00 | 0.00 | 0.00 | 30 | 999.7 |
| 20260509023021 | 77 | 225 | 16.0 | 22.0 | 0.00 | 0.00 | 0.00 | 29 | 999.7 |
| 20260509021520 | 78 | 223 | 17.0 | 24.0 | 0.00 | 0.00 | 0.00 | 26 | 999.6 |
| 20260509014530 | 79 | 194 | 17.0 | 23.0 | 0.00 | 0.00 | 0.00 | 25 | 999.0 |